STARLINK-1661, 46355

Orbit data source: Space-Track

STARLINK-1661, 46355 is a payload satellite owned by SpaceX/Seattle (US) in LEO that was launched on Thu, 03 Sep 2020 UTC via an FALCON 9 launch vehicle from the Air Force Eastern Test Range (AFETR). Payload-class satellites include a variety of spacecraft equipped with specific instruments for various scientific and technological missions. These include communications satellites like Starlink; space stations such as the ISS; scientific satellites like the Hubble; Earth observation satellites from companies like Planet Labs, Umbra, and HawkEye 360; GPS; miniature CubeSats for education and research; and military/defense satellites.

Loading next visibility...
Identifier
46355, 2020-062AG
Orbit
LEO
Country
Flag of USUS
Related business
Manufacturer
SpaceX/Seattle
Mission
Partially operational Commercial Communications
Bus & Motor
STARLINK, Unknown motor
Mass
260 kg wet, ~248 kg dry
Launch date (UTC)
2020-09-03 (6 years ago)
Launch vehicle
FALCON 9
Launch site
Air Force Eastern Test Range (AFETR)
Object type
Payload
Rocket body
Debris
Shape & HBR
Box + 1 Pan, 10.1 m
Radar Cross Section
13.562 m², Large (>1 m²)

Expand to show TLE details & history
Last TLE update: 8 hours ago

TLE from 8 hours ago
0 STARLINK-1661
1 46355U 20062AG  26127.23264921  .00097423  00000-0  27730-2 0  9996
2 46355  53.1558  98.1302 0005471  71.1140 289.0456 15.35330813313379
Epoch: 2026-05-07T05:35Z
TLE epoch observation values (Epoch: 2026-05-07T05:35:00.891Z)
Latitude
-0.00001°
Longitude
149.29474°
Altitude
459.62 km
Speed
7.639 km/s
True Right ascension
06h 32m 31s
True Declination
0° 00' 00"
Sunlit
Object was in daylight at epoch
Visualization orbit readout
Latitude
Unknown
Longitude
Unknown
Altitude
Unknown
Speed
Unknown
Apparent Right ascension
Unknown
Apparent Declination
Unknown
Sunlit
N/A
Visualization observer readout
Local Sidereal Time
21:31:57
Azimuth
Unknown
Elevation
Unknown
Doppler factor
Unknown
Orbital elements
Apogee altitude
463.937 km
Perigee altitude
456.454 km
Semi-major axis
6,838.333 km
Eccentricity
0.00055
Inclination
53.1558°
RAAN
98.1302°
Arg. of periapsis
71.114°
True anomaly
288.98633°
Mean anomaly
289.0456°
Eccentric anomaly
289.01596°
Mean motion
3.83811 °/min
Orbital period
93.8 mins
BSTAR
0.002773
Loading maneuver chart data...
Computing Atmospheric mass density...

Documentation

Showing up to 5 results
|